| time (UTC) | temp F | wind direction | speed MPH | gust MPH | rain 1hr in | rain 24hr in | rain mn in | humidity % | barometer mb |
| 20260505152536 | 74 | 225 | 3.0 | 10.0 | 0.00 | 0.00 | 0.00 | 48 | 1009.4 |
| 20260505152016 | 74 | 225 | 3.0 | 9.0 | 0.00 | 0.00 | 0.00 | 48 | 1009.5 |
| 20260505151537 | 74 | 225 | 5.0 | 12.0 | 0.00 | 0.00 | 0.00 | 48 | 1009.6 |
| 20260505151016 | 74 | 225 | 6.0 | 13.0 | 0.00 | 0.00 | 0.00 | 48 | 1009.7 |
| 20260505150516 | 74 | 225 | 4.0 | 10.0 | 0.00 | 0.00 | 0.00 | 47 | 1009.6 |
| 20260505140516 | 73 | 225 | 5.0 | 11.0 | 0.00 | 0.00 | 0.00 | 48 | 1009.3 |
| 20260505125016 | 71 | 225 | 2.0 | 6.0 | 0.00 | 0.00 | 0.00 | 48 | 1008.7 |
| 20260505124516 | 71 | 225 | 3.0 | 8.0 | 0.00 | 0.00 | 0.00 | 48 | 1008.7 |
| 20260505124016 | 71 | 248 | 3.0 | 10.0 | 0.00 | 0.00 | 0.00 | 48 | 1008.6 |
| 20260505123516 | 71 | 225 | 3.0 | 11.0 | 0.00 | 0.00 | 0.00 | 48 | 1008.8 |
| 20260505123016 | 71 | 225 | 4.0 | 9.0 | 0.00 | 0.00 | 0.00 | 48 | 1008.7 |
| 20260505122516 | 71 | 203 | 2.0 | 10.0 | 0.00 | 0.00 | 0.00 | 48 | 1008.5 |
| 20260505122016 | 71 | 225 | 3.0 | 7.0 | 0.00 | 0.00 | 0.00 | 48 | 1008.6 |
| 20260505121517 | 71 | 203 | 4.0 | 10.0 | 0.00 | 0.00 | 0.00 | 48 | 1008.5 |
| 20260505121036 | 71 | 225 | 3.0 | 8.0 | 0.00 | 0.00 | 0.00 | 48 | 1008.5 |
| 20260505120516 | 71 | 225 | 3.0 | 9.0 | 0.00 | 0.00 | 0.00 | 48 | 1008.6 |
| 20260505120016 | 71 | 203 | 4.0 | 11.0 | 0.00 | 0.00 | 0.00 | 48 | 1008.5 |
| 20260505115517 | 71 | 225 | 3.0 | 7.0 | 0.00 | 0.00 | 0.00 | 48 | 1008.5 |
| 20260505115016 | 71 | 225 | 4.0 | 11.0 | 0.00 | 0.00 | 0.00 | 49 | 1008.5 |
| 20260505114516 | 71 | 225 | 5.0 | 11.0 | 0.00 | 0.00 | 0.00 | 49 | 1008.3 |
| 20260505114036 | 71 | 225 | 4.0 | 11.0 | 0.00 | 0.00 | 0.00 | 49 | 1008.4 |
| 20260505113516 | 71 | 225 | 2.0 | 8.0 | 0.00 | 0.00 | 0.00 | 49 | 1008.4 |
| 20260505113016 | 71 | 225 | 3.0 | 12.0 | 0.00 | 0.00 | 0.00 | 49 | 1008.4 |
| 20260505112517 | 71 | 225 | 2.0 | 7.0 | 0.00 | 0.00 | 0.00 | 49 | 1008.4 |
| 20260505112016 | 71 | 225 | 3.0 | 10.0 | 0.00 | 0.00 | 0.00 | 49 | 1008.3 |
| 20260505111516 | 71 | 225 | 2.0 | 9.0 | 0.00 | 0.00 | 0.00 | 49 | 1008.3 |
| 20260505111016 | 71 | 225 | 3.0 | 6.0 | 0.00 | 0.00 | 0.00 | 49 | 1008.2 |
| 20260505110516 | 71 | 225 | 1.0 | 5.0 | 0.00 | 0.00 | 0.00 | 49 | 1008.1 |
| 20260505102017 | 71 | 225 | 2.0 | 8.0 | 0.00 | 0.00 | 0.00 | 49 | 1008.4 |
| 20260505101536 | 71 | 225 | 2.0 | 6.0 | 0.00 | 0.00 | 0.00 | 49 | 1008.4 |
| 20260505101016 | 71 | 225 | 2.0 | 6.0 | 0.00 | 0.00 | 0.00 | 49 | 1008.3 |
| 20260505100516 | 71 | 225 | 3.0 | 8.0 | 0.00 | 0.00 | 0.00 | 50 | 1008.2 |
| 20260505100016 | 70 | 225 | 3.0 | 9.0 | 0.00 | 0.00 | 0.00 | 50 | 1008.3 |
| 20260505095516 | 70 | 225 | 2.0 | 11.0 | 0.00 | 0.00 | 0.00 | 50 | 1008.1 |
| 20260505095016 | 70 | 225 | 3.0 | 10.0 | 0.00 | 0.00 | 0.00 | 50 | 1008.2 |
| 20260505094516 | 70 | 225 | 3.0 | 7.0 | 0.00 | 0.00 | 0.00 | 50 | 1008.1 |
| 20260505094016 | 70 | 225 | 2.0 | 9.0 | 0.00 | 0.00 | 0.00 | 50 | 1008.0 |
| 20260505093536 | 70 | 225 | 3.0 | 11.0 | 0.00 | 0.00 | 0.00 | 50 | 1008.2 |
| 20260505093016 | 70 | 203 | 2.0 | 8.0 | 0.00 | 0.00 | 0.00 | 50 | 1008.2 |
| 20260505092516 | 70 | 225 | 3.0 | 12.0 | 0.00 | 0.00 | 0.00 | 50 | 1008.3 |
| 20260505092036 | 70 | 225 | 3.0 | 8.0 | 0.00 | 0.00 | 0.00 | 50 | 1008.3 |
| 20260505091516 | 70 | 203 | 1.0 | 5.0 | 0.00 | 0.00 | 0.00 | 50 | 1008.3 |
| 20260505091016 | 70 | 225 | 3.0 | 8.0 | 0.00 | 0.00 | 0.00 | 51 | 1008.6 |
| 20260505090516 | 70 | 225 | 3.0 | 10.0 | 0.00 | 0.00 | 0.00 | 51 | 1008.5 |
| 20260505090016 | 70 | 203 | 3.0 | 12.0 | 0.00 | 0.00 | 0.00 | 51 | 1008.5 |
| 20260505085516 | 70 | 225 | 3.0 | 12.0 | 0.00 | 0.00 | 0.00 | 51 | 1008.7 |
| 20260505085016 | 70 | 225 | 3.0 | 8.0 | 0.00 | 0.00 | 0.00 | 51 | 1008.6 |
| 20260505084516 | 70 | 225 | 3.0 | 7.0 | 0.00 | 0.00 | 0.00 | 51 | 1008.8 |
| 20260505084016 | 70 | 225 | 2.0 | 7.0 | 0.00 | 0.00 | 0.00 | 51 | 1008.8 |
| 20260505083516 | 70 | 225 | 2.0 | 7.0 | 0.00 | 0.00 | 0.00 | 51 | 1009.0 |
| 20260505083036 | 70 | 225 | 2.0 | 6.0 | 0.00 | 0.00 | 0.00 | 51 | 1009.1 |
| 20260505082516 | 70 | 225 | 3.0 | 12.0 | 0.00 | 0.00 | 0.00 | 51 | 1009.2 |
| 20260505082016 | 70 | 225 | 2.0 | 8.0 | 0.00 | 0.00 | 0.00 | 51 | 1009.4 |
| 20260505081515 | 70 | 225 | 3.0 | 10.0 | 0.00 | 0.00 | 0.00 | 51 | 1009.5 |
| 20260505081016 | 70 | 225 | 1.0 | 8.0 | 0.00 | 0.00 | 0.00 | 51 | 1009.4 |
| 20260505080516 | 70 | 225 | 3.0 | 9.0 | 0.00 | 0.00 | 0.00 | 51 | 1009.3 |
| 20260505080035 | 70 | 203 | 3.0 | 10.0 | 0.00 | 0.00 | 0.00 | 51 | 1009.3 |
| 20260505075515 | 70 | 225 | 2.0 | 7.0 | 0.00 | 0.00 | 0.00 | 52 | 1009.5 |
| 20260505075036 | 70 | 225 | 3.0 | 12.0 | 0.00 | 0.00 | 0.00 | 52 | 1009.5 |
| 20260505074515 | 70 | 225 | 2.0 | 6.0 | 0.00 | 0.00 | 0.00 | 52 | 1009.6 |
| 20260505074016 | 70 | 135 | 2.0 | 6.0 | 0.00 | 0.00 | 0.00 | 52 | 1009.5 |
| 20260505073516 | 70 | 225 | 4.0 | 11.0 | 0.00 | 0.00 | 0.00 | 52 | 1009.7 |
| 20260505073016 | 70 | 225 | 3.0 | 11.0 | 0.00 | 0.00 | 0.00 | 52 | 1009.8 |
| 20260505072515 | 70 | 225 | 2.0 | 10.0 | 0.00 | 0.00 | 0.00 | 52 | 1009.9 |
| 20260505072116 | 70 | 225 | 2.0 | 10.0 | 0.00 | 0.00 | 0.00 | 53 | 1010.1 |
| 20260505071515 | 70 | 225 | 3.0 | 8.0 | 0.00 | 0.00 | 0.00 | 53 | 1010.1 |
| 20260505071015 | 70 | 225 | 2.0 | 7.0 | 0.00 | 0.00 | 0.00 | 53 | 1010.1 |
| 20260505070535 | 70 | 225 | 2.0 | 8.0 | 0.00 | 0.00 | 0.00 | 53 | 1010.1 |
| 20260505070016 | 70 | 225 | 3.0 | 12.0 | 0.00 | 0.00 | 0.00 | 54 | 1010.2 |
| 20260505065518 | 70 | 225 | 3.0 | 8.0 | 0.00 | 0.00 | 0.00 | 54 | 1010.2 |
| 20260505065017 | 70 | 225 | 3.0 | 8.0 | 0.00 | 0.00 | 0.00 | 54 | 1010.3 |
| 20260505064515 | 70 | 158 | 2.0 | 9.0 | 0.00 | 0.00 | 0.00 | 55 | 1010.3 |
| 20260505064015 | 70 | 225 | 3.0 | 8.0 | 0.00 | 0.00 | 0.00 | 55 | 1010.3 |
| 20260505063515 | 70 | 225 | 4.0 | 10.0 | 0.00 | 0.00 | 0.00 | 55 | 1010.4 |
| 20260505063015 | 70 | 225 | 2.0 | 8.0 | 0.00 | 0.00 | 0.00 | 55 | 1010.5 |
| 20260505062516 | 70 | 225 | 2.0 | 8.0 | 0.00 | 0.00 | 0.00 | 55 | 1010.5 |
| 20260505062015 | 70 | 225 | 2.0 | 7.0 | 0.00 | 0.00 | 0.00 | 55 | 1010.6 |
| 20260505061516 | 71 | 225 | 3.0 | 11.0 | 0.00 | 0.00 | 0.00 | 55 | 1010.6 |
| 20260505061015 | 71 | 225 | 3.0 | 11.0 | 0.00 | 0.00 | 0.00 | 55 | 1010.4 |
| 20260505060515 | 71 | 225 | 2.0 | 8.0 | 0.00 | 0.00 | 0.00 | 55 | 1010.5 |
| 20260505060035 | 71 | 225 | 2.0 | 8.0 | 0.00 | 0.00 | 0.00 | 55 | 1010.5 |
| 20260505055517 | 71 | 203 | 3.0 | 10.0 | 0.00 | 0.00 | 0.00 | 55 | 1010.5 |
| 20260505055017 | 71 | 225 | 3.0 | 9.0 | 0.00 | 0.00 | 0.00 | 55 | 1010.6 |
| 20260505054518 | 71 | 225 | 2.0 | 7.0 | 0.00 | 0.00 | 0.00 | 55 | 1010.4 |
| 20260505054017 | 71 | 225 | 2.0 | 8.0 | 0.00 | 0.00 | 0.00 | 55 | 1010.5 |
| 20260505053517 | 71 | 225 | 3.0 | 8.0 | 0.00 | 0.00 | 0.00 | 55 | 1010.5 |
| 20260505053018 | 71 | 225 | 2.0 | 9.0 | 0.00 | 0.00 | 0.00 | 55 | 1010.4 |
| 20260505052518 | 71 | 225 | 2.0 | 7.0 | 0.00 | 0.00 | 0.00 | 55 | 1010.4 |
| 20260505052018 | 71 | 225 | 3.0 | 10.0 | 0.00 | 0.00 | 0.00 | 55 | 1010.5 |
| 20260505051518 | 71 | 225 | 2.0 | 6.0 | 0.00 | 0.00 | 0.00 | 55 | 1010.3 |
| 20260505051018 | 71 | 225 | 1.0 | 6.0 | 0.00 | 0.00 | 0.00 | 56 | 1010.4 |
| 20260505050519 | 71 | 315 | 1.0 | 4.0 | 0.00 | 0.00 | 0.00 | 56 | 1010.4 |
| 20260505041516 | 71 | 68 | 1.0 | 5.0 | 0.00 | 0.00 | 0.00 | 57 | 1010.3 |
| 20260505041016 | 72 | 225 | 1.0 | 3.0 | 0.00 | 0.00 | 0.00 | 57 | 1010.5 |
| 20260505040516 | 72 | 225 | 1.0 | 3.0 | 0.00 | 0.00 | 0.00 | 57 | 1010.5 |
| 20260505040016 | 72 | 225 | 1.0 | 4.0 | 0.00 | 0.00 | 0.00 | 57 | 1010.5 |
| 20260505035516 | 72 | 135 | 1.0 | 3.0 | 0.00 | 0.00 | 0.00 | 57 | 1010.5 |
| 20260505035017 | 72 | 0.0 | 2.0 | 0.00 | 0.00 | 0.00 | 57 | 1010.4 | |
| 20260505034515 | 72 | 225 | 1.0 | 5.0 | 0.00 | 0.00 | 0.00 | 57 | 1010.5 |
| 20260505034015 | 72 | 225 | 1.0 | 5.0 | 0.00 | 0.00 | 0.00 | 57 | 1010.5 |
| 20260505033519 | 72 | 203 | 1.0 | 7.0 | 0.00 | 0.00 | 0.00 | 57 | 1010.5 |
| 20260505033018 | 72 | 225 | 1.0 | 7.0 | 0.00 | 0.00 | 0.00 | 57 | 1010.6 |
| 20260505032517 | 73 | 225 | 1.0 | 6.0 | 0.00 | 0.00 | 0.00 | 57 | 1010.4 |
| 20260505032018 | 73 | 248 | 1.0 | 3.0 | 0.00 | 0.00 | 0.00 | 57 | 1010.5 |
| 20260505031517 | 73 | 225 | 1.0 | 6.0 | 0.00 | 0.00 | 0.00 | 57 | 1010.5 |
| 20260505031017 | 73 | 248 | 1.0 | 4.0 | 0.00 | 0.00 | 0.00 | 57 | 1010.6 |
| 20260505030517 | 73 | 135 | 2.0 | 7.0 | 0.00 | 0.00 | 0.00 | 57 | 1010.5 |
| 20260505030017 | 73 | 225 | 1.0 | 7.0 | 0.00 | 0.00 | 0.00 | 57 | 1010.5 |
| 20260505025517 | 73 | 135 | 2.0 | 7.0 | 0.00 | 0.00 | 0.00 | 57 | 1010.3 |
| 20260505025017 | 73 | 225 | 1.0 | 6.0 | 0.00 | 0.00 | 0.00 | 57 | 1010.2 |
| 20260505024518 | 73 | 225 | 1.0 | 5.0 | 0.00 | 0.00 | 0.00 | 57 | 1010.2 |
| 20260505024017 | 73 | 225 | 2.0 | 9.0 | 0.00 | 0.00 | 0.00 | 57 | 1010.4 |
| 20260505023517 | 73 | 203 | 1.0 | 6.0 | 0.00 | 0.00 | 0.00 | 56 | 1010.2 |
| 20260505023037 | 73 | 225 | 1.0 | 5.0 | 0.00 | 0.00 | 0.00 | 56 | 1010.1 |
| 20260505022517 | 74 | 203 | 1.0 | 2.0 | 0.00 | 0.00 | 0.00 | 56 | 1010.0 |
| 20260505022017 | 74 | 135 | 1.0 | 6.0 | 0.00 | 0.00 | 0.00 | 56 | 1010.0 |
| 20260505021518 | 74 | 225 | 1.0 | 5.0 | 0.00 | 0.00 | 0.00 | 56 | 1009.9 |
| 20260505021017 | 74 | 225 | 1.0 | 4.0 | 0.00 | 0.00 | 0.00 | 56 | 1009.8 |
| 20260505020518 | 74 | 248 | 1.0 | 4.0 | 0.00 | 0.00 | 0.00 | 56 | 1009.6 |
| 20260505020017 | 74 | 0.0 | 2.0 | 0.00 | 0.00 | 0.00 | 56 | 1009.7 | |
| 20260505015517 | 74 | 225 | 1.0 | 3.0 | 0.00 | 0.00 | 0.00 | 56 | 1009.7 |
| 20260505015017 | 74 | 225 | 1.0 | 4.0 | 0.00 | 0.00 | 0.00 | 56 | 1009.7 |
| 20260505014517 | 74 | 225 | 1.0 | 4.0 | 0.00 | 0.00 | 0.00 | 55 | 1009.8 |
| 20260505014017 | 74 | 225 | 1.0 | 4.0 | 0.00 | 0.00 | 0.00 | 55 | 1009.8 |
| 20260505013517 | 75 | 225 | 1.0 | 3.0 | 0.00 | 0.00 | 0.00 | 55 | 1009.8 |
| 20260505013017 | 75 | 203 | 1.0 | 3.0 | 0.00 | 0.00 | 0.00 | 55 | 1009.7 |
| 20260505012558 | 75 | 248 | 1.0 | 5.0 | 0.00 | 0.00 | 0.00 | 55 | 1009.6 |
| 20260505012017 | 75 | 158 | 1.0 | 4.0 | 0.00 | 0.00 | 0.00 | 54 | 1009.6 |
| 20260505011517 | 75 | 135 | 1.0 | 3.0 | 0.00 | 0.00 | 0.00 | 54 | 1009.7 |
| 20260505011037 | 76 | 225 | 1.0 | 3.0 | 0.00 | 0.00 | 0.00 | 54 | 1009.7 |
| 20260505010517 | 76 | 0.0 | 3.0 | 0.00 | 0.00 | 0.00 | 54 | 1009.7 | |
| 20260505010017 | 76 | 135 | 1.0 | 3.0 | 0.00 | 0.00 | 0.00 | 53 | 1009.5 |
| 20260505005537 | 76 | 135 | 1.0 | 4.0 | 0.00 | 0.00 | 0.00 | 53 | 1009.5 |
| 20260505005017 | 77 | 158 | 1.0 | 5.0 | 0.00 | 0.00 | 0.00 | 53 | 1009.5 |
| 20260505004517 | 77 | 225 | 1.0 | 3.0 | 0.00 | 0.00 | 0.00 | 53 | 1009.5 |
| 20260505004017 | 77 | 225 | 2.0 | 5.0 | 0.00 | 0.00 | 0.00 | 52 | 1009.6 |
| 20260505003538 | 77 | 180 | 2.0 | 6.0 | 0.00 | 0.00 | 0.00 | 52 | 1009.5 |
| 20260505003017 | 78 | 135 | 1.0 | 4.0 | 0.00 | 0.00 | 0.00 | 51 | 1009.6 |
| 20260505002517 | 78 | 203 | 1.0 | 2.0 | 0.00 | 0.00 | 0.00 | 51 | 1009.6 |
| 20260505002037 | 78 | 248 | 1.0 | 5.0 | 0.00 | 0.00 | 0.00 | 51 | 1009.7 |
| 20260505001537 | 79 | 135 | 1.0 | 5.0 | 0.00 | 0.00 | 0.00 | 50 | 1009.7 |
| 20260505001017 | 79 | 225 | 1.0 | 5.0 | 0.00 | 0.00 | 0.00 | 50 | 1009.7 |
| 20260505000517 | 79 | 225 | 2.0 | 4.0 | 0.00 | 0.00 | 0.00 | 49 | 1009.7 |
| 20260505000017 | 80 | 225 | 1.0 | 5.0 | 0.00 | 0.00 | 0.00 | 49 | 1009.8 |
| 20260504235517 | 80 | 225 | 2.0 | 7.0 | 0.00 | 0.00 | 0.00 | 49 | 1009.9 |
| 20260504235017 | 80 | 225 | 2.0 | 8.0 | 0.00 | 0.00 | 0.00 | 48 | 1009.9 |
| 20260504234517 | 80 | 225 | 3.0 | 8.0 | 0.00 | 0.00 | 0.00 | 48 | 1010.1 |
| 20260504234017 | 80 | 225 | 3.0 | 6.0 | 0.00 | 0.00 | 0.00 | 48 | 1010.2 |
| 20260504233517 | 80 | 225 | 3.0 | 11.0 | 0.00 | 0.00 | 0.00 | 48 | 1010.3 |
| 20260504233018 | 80 | 225 | 2.0 | 6.0 | 0.00 | 0.00 | 0.00 | 48 | 1010.2 |
| 20260504232518 | 80 | 203 | 3.0 | 10.0 | 0.00 | 0.00 | 0.00 | 48 | 1010.2 |
| 20260504232017 | 80 | 225 | 2.0 | 6.0 | 0.00 | 0.00 | 0.00 | 49 | 1010.2 |
| 20260504231537 | 80 | 225 | 2.0 | 8.0 | 0.00 | 0.00 | 0.00 | 47 | 1010.3 |
| 20260504231037 | 80 | 225 | 2.0 | 10.0 | 0.00 | 0.00 | 0.00 | 47 | 1010.4 |
| 20260504230517 | 80 | 225 | 2.0 | 8.0 | 0.00 | 0.00 | 0.00 | 48 | 1010.3 |
| 20260504230017 | 80 | 225 | 2.0 | 6.0 | 0.00 | 0.00 | 0.00 | 47 | 1010.3 |
| 20260504225517 | 81 | 135 | 1.0 | 6.0 | 0.00 | 0.00 | 0.00 | 47 | 1010.5 |
| 20260504225017 | 81 | 225 | 2.0 | 8.0 | 0.00 | 0.00 | 0.00 | 47 | 1010.5 |
| 20260504224517 | 81 | 225 | 2.0 | 8.0 | 0.00 | 0.00 | 0.00 | 46 | 1010.7 |
| 20260504224039 | 81 | 225 | 2.0 | 5.0 | 0.00 | 0.00 | 0.00 | 46 | 1010.8 |
| 20260504223517 | 81 | 225 | 3.0 | 7.0 | 0.00 | 0.00 | 0.00 | 47 | 1010.9 |
| 20260504223017 | 81 | 225 | 3.0 | 12.0 | 0.00 | 0.00 | 0.00 | 46 | 1011.0 |
| 20260504222517 | 81 | 225 | 3.0 | 8.0 | 0.00 | 0.00 | 0.00 | 46 | 1010.8 |
| 20260504222017 | 81 | 225 | 2.0 | 7.0 | 0.00 | 0.00 | 0.00 | 46 | 1010.9 |
| 20260504221517 | 81 | 225 | 2.0 | 8.0 | 0.00 | 0.00 | 0.00 | 46 | 1010.9 |
| 20260504221037 | 81 | 135 | 2.0 | 7.0 | 0.00 | 0.00 | 0.00 | 45 | 1010.7 |
| 20260504220517 | 81 | 225 | 4.0 | 8.0 | 0.00 | 0.00 | 0.00 | 45 | 1011.0 |
| 20260504220017 | 81 | 225 | 4.0 | 12.0 | 0.00 | 0.00 | 0.00 | 45 | 1011.0 |
| 20260504215517 | 81 | 225 | 5.0 | 14.0 | 0.00 | 0.00 | 0.00 | 44 | 1011.0 |
| 20260504215017 | 82 | 225 | 5.0 | 15.0 | 0.00 | 0.00 | 0.00 | 44 | 1011.0 |
| 20260504214517 | 82 | 225 | 3.0 | 10.0 | 0.00 | 0.00 | 0.00 | 44 | 1011.2 |
| 20260504214017 | 82 | 135 | 4.0 | 10.0 | 0.00 | 0.00 | 0.00 | 43 | 1011.1 |
| 20260504213517 | 82 | 225 | 4.0 | 12.0 | 0.00 | 0.00 | 0.00 | 43 | 1011.2 |
| 20260504213037 | 82 | 225 | 2.0 | 8.0 | 0.00 | 0.00 | 0.00 | 43 | 1011.3 |
| 20260504212517 | 82 | 225 | 4.0 | 9.0 | 0.00 | 0.00 | 0.00 | 44 | 1011.4 |
| 20260504212057 | 82 | 225 | 5.0 | 15.0 | 0.00 | 0.00 | 0.00 | 42 | 1011.4 |
| 20260504211537 | 82 | 225 | 3.0 | 8.0 | 0.00 | 0.00 | 0.00 | 43 | 1011.6 |
| 20260504211017 | 82 | 203 | 4.0 | 12.0 | 0.00 | 0.00 | 0.00 | 42 | 1011.7 |
| 20260504210517 | 83 | 135 | 3.0 | 10.0 | 0.00 | 0.00 | 0.00 | 42 | 1011.9 |
| 20260504210018 | 83 | 225 | 3.0 | 8.0 | 0.00 | 0.00 | 0.00 | 42 | 1011.9 |
| 20260504205517 | 83 | 225 | 4.0 | 11.0 | 0.00 | 0.00 | 0.00 | 42 | 1012.0 |
| 20260504205016 | 82 | 203 | 4.0 | 13.0 | 0.00 | 0.00 | 0.00 | 42 | 1012.2 |
| 20260504204537 | 83 | 225 | 4.0 | 10.0 | 0.00 | 0.00 | 0.00 | 41 | 1012.2 |
| 20260504204018 | 83 | 225 | 3.0 | 8.0 | 0.00 | 0.00 | 0.00 | 42 | 1012.5 |
| 20260504203517 | 83 | 225 | 3.0 | 7.0 | 0.00 | 0.00 | 0.00 | 43 | 1012.7 |
| 20260504203017 | 82 | 225 | 3.0 | 10.0 | 0.00 | 0.00 | 0.00 | 43 | 1012.8 |
| 20260504202537 | 82 | 203 | 3.0 | 13.0 | 0.00 | 0.00 | 0.00 | 43 | 1012.8 |
| 20260504202017 | 82 | 225 | 3.0 | 8.0 | 0.00 | 0.00 | 0.00 | 43 | 1012.9 |
| 20260504201517 | 82 | 225 | 3.0 | 10.0 | 0.00 | 0.00 | 0.00 | 41 | 1013.0 |
| 20260504201017 | 82 | 135 | 4.0 | 10.0 | 0.00 | 0.00 | 0.00 | 42 | 1013.1 |
| 20260504200516 | 83 | 225 | 5.0 | 12.0 | 0.00 | 0.00 | 0.00 | 40 | 1013.1 |
| 20260504200036 | 83 | 225 | 4.0 | 13.0 | 0.00 | 0.00 | 0.00 | 41 | 1013.0 |
| 20260504195517 | 83 | 225 | 4.0 | 11.0 | 0.00 | 0.00 | 0.00 | 42 | 1013.2 |
| 20260504195017 | 83 | 225 | 3.0 | 8.0 | 0.00 | 0.00 | 0.00 | 41 | 1013.1 |
| 20260504194517 | 82 | 225 | 4.0 | 9.0 | 0.00 | 0.00 | 0.00 | 41 | 1013.3 |
| 20260504194016 | 82 | 225 | 4.0 | 10.0 | 0.00 | 0.00 | 0.00 | 40 | 1013.7 |
| 20260504193516 | 82 | 225 | 2.0 | 7.0 | 0.00 | 0.00 | 0.00 | 40 | 1013.8 |
| 20260504193017 | 82 | 225 | 3.0 | 10.0 | 0.00 | 0.00 | 0.00 | 40 | 1013.7 |
| 20260504192516 | 82 | 225 | 3.0 | 12.0 | 0.00 | 0.00 | 0.00 | 41 | 1013.7 |
| 20260504192017 | 82 | 225 | 4.0 | 11.0 | 0.00 | 0.00 | 0.00 | 40 | 1013.8 |
| 20260504191516 | 82 | 225 | 3.0 | 8.0 | 0.00 | 0.00 | 0.00 | 40 | 1013.8 |
| 20260504191016 | 82 | 225 | 4.0 | 9.0 | 0.00 | 0.00 | 0.00 | 40 | 1013.8 |
| 20260504190537 | 82 | 225 | 4.0 | 13.0 | 0.00 | 0.00 | 0.00 | 39 | 1013.8 |
| 20260504190017 | 82 | 225 | 3.0 | 7.0 | 0.00 | 0.00 | 0.00 | 41 | 1013.8 |
| 20260504185537 | 81 | 203 | 4.0 | 11.0 | 0.00 | 0.00 | 0.00 | 41 | 1013.8 |
| 20260504185017 | 81 | 203 | 5.0 | 10.0 | 0.00 | 0.00 | 0.00 | 39 | 1014.0 |
| 20260504184517 | 82 | 135 | 4.0 | 11.0 | 0.00 | 0.00 | 0.00 | 38 | 1013.9 |
| 20260504184017 | 81 | 225 | 3.0 | 16.0 | 0.00 | 0.00 | 0.00 | 39 | 1014.1 |
| 20260504183516 | 81 | 225 | 4.0 | 10.0 | 0.00 | 0.00 | 0.00 | 40 | 1014.0 |
| 20260504183016 | 81 | 225 | 5.0 | 14.0 | 0.00 | 0.00 | 0.00 | 38 | 1014.3 |
| 20260504182516 | 81 | 225 | 5.0 | 11.0 | 0.00 | 0.00 | 0.00 | 39 | 1014.4 |
| 20260504182036 | 81 | 225 | 3.0 | 14.0 | 0.00 | 0.00 | 0.00 | 40 | 1014.5 |
| 20260504181516 | 81 | 135 | 3.0 | 13.0 | 0.00 | 0.00 | 0.00 | 39 | 1014.6 |
| 20260504181016 | 81 | 225 | 3.0 | 7.0 | 0.00 | 0.00 | 0.00 | 38 | 1014.5 |
| 20260504180516 | 80 | 225 | 4.0 | 12.0 | 0.00 | 0.00 | 0.00 | 40 | 1014.6 |
| 20260504180016 | 80 | 225 | 3.0 | 8.0 | 0.00 | 0.00 | 0.00 | 39 | 1014.7 |
| 20260504175537 | 79 | 225 | 4.0 | 11.0 | 0.00 | 0.00 | 0.00 | 38 | 1014.8 |
| 20260504175016 | 79 | 225 | 4.0 | 10.0 | 0.00 | 0.00 | 0.00 | 41 | 1014.7 |
| 20260504174517 | 79 | 135 | 4.0 | 12.0 | 0.00 | 0.00 | 0.00 | 41 | 1014.9 |
| 20260504174037 | 79 | 135 | 4.0 | 11.0 | 0.00 | 0.00 | 0.00 | 40 | 1015.0 |
| 20260504173517 | 79 | 225 | 3.0 | 7.0 | 0.00 | 0.00 | 0.00 | 41 | 1015.1 |
| 20260504173057 | 79 | 225 | 6.0 | 13.0 | 0.00 | 0.00 | 0.00 | 39 | 1015.2 |
| 20260504172516 | 78 | 248 | 4.0 | 10.0 | 0.00 | 0.00 | 0.00 | 42 | 1015.2 |
| 20260504172017 | 79 | 225 | 3.0 | 7.0 | 0.00 | 0.00 | 0.00 | 41 | 1015.2 |
| 20260504171516 | 79 | 225 | 4.0 | 11.0 | 0.00 | 0.00 | 0.00 | 40 | 1015.3 |
| 20260504171016 | 78 | 225 | 5.0 | 12.0 | 0.00 | 0.00 | 0.00 | 40 | 1015.3 |
| 20260504170517 | 78 | 225 | 3.0 | 12.0 | 0.00 | 0.00 | 0.00 | 40 | 1015.5 |